TAM3928 SBSP-SBRJ

Flight info

Callsign TAM3928
Flight time 0h 36m
Altitude 25000
Route NIBRU UZ171 KEVUN
Aircraft A319/M-SDE3FGHIRWY/LB1

Departure

Time 2026-05-05 17:05
Airport Congonhas–Deputado Freitas Nobre Airport (SBSP)

Arrival

Time 2026-05-05 17:41
Airport Santos Dumont Airport (SBRJ)
Time Latitude Longitude Altitude Speed Heading
2026-05-05 16:44 -23.62391 -46.66052 2601 ft 0 kts 231°
2026-05-05 16:58 -23.62388 -46.66047 2600 ft 4 kts 231°
2026-05-05 16:58 -23.62372 -46.66024 2600 ft 4 kts 249°
2026-05-05 16:59 -23.62378 -46.66002 2600 ft 3 kts 327°
2026-05-05 16:59 -23.62381 -46.66000 2600 ft 0 kts 327°
2026-05-05 17:01 -23.62380 -46.66001 2600 ft 1 kts 327°
2026-05-05 17:01 -23.62364 -46.66012 2600 ft 4 kts 327°
2026-05-05 17:02 -23.62331 -46.66029 2600 ft 7 kts 342°
2026-05-05 17:02 -23.62274 -46.66042 2600 ft 9 kts 355°
2026-05-05 17:02 -23.62212 -46.66060 2599 ft 10 kts 327°
2026-05-05 17:02 -23.62157 -46.66099 2599 ft 10 kts 327°
2026-05-05 17:03 -23.62122 -46.66123 2593 ft 0 kts 327°
2026-05-05 17:03 -23.62110 -46.66131 2592 ft 5 kts 331°
2026-05-05 17:03 -23.62056 -46.66131 2596 ft 11 kts 23°
2026-05-05 17:03 -23.62059 -46.66068 2596 ft 10 kts 144°
2026-05-05 17:04 -23.62071 -46.66060 2596 ft 0 kts 147°
2026-05-05 17:04 -23.62150 -46.66005 2598 ft 49 kts 147°
2026-05-05 17:04 -23.62687 -46.65632 2607 ft 131 kts 147°
2026-05-05 17:04 -23.63586 -46.65005 2943 ft 160 kts 145°
2026-05-05 17:05 -23.64534 -46.64320 3492 ft 170 kts 146°
2026-05-05 17:05 -23.65332 -46.63319 3941 ft 183 kts 120°
2026-05-05 17:05 -23.65945 -46.62047 4311 ft 201 kts 117°
2026-05-05 17:05 -23.66606 -46.60604 4651 ft 225 kts 117°
2026-05-05 17:06 -23.67317 -46.58977 5092 ft 250 kts 109°
2026-05-05 17:06 -23.67475 -46.57017 5572 ft 272 kts 84°
2026-05-05 17:06 -23.67288 -46.54938 6425 ft 279 kts 84°
2026-05-05 17:06 -23.67088 -46.52815 7335 ft 283 kts 84°
2026-05-05 17:07 -23.66886 -46.50666 8256 ft 287 kts 84°
2026-05-05 17:07 -23.66685 -46.48490 9190 ft 290 kts 85°
2026-05-05 17:07 -23.66485 -46.46282 10117 ft 295 kts 85°
2026-05-05 17:07 -23.66284 -46.44009 10702 ft 311 kts 85°
2026-05-05 17:08 -23.66070 -46.41590 11192 ft 327 kts 85°
2026-05-05 17:08 -23.65848 -46.39095 11957 ft 334 kts 85°
2026-05-05 17:08 -23.65619 -46.36563 12779 ft 338 kts 84°
2026-05-05 17:08 -23.65388 -46.33995 13611 ft 342 kts 84°
2026-05-05 17:09 -23.65155 -46.31402 14373 ft 346 kts 84°
2026-05-05 17:09 -23.64920 -46.28779 15078 ft 350 kts 85°
2026-05-05 17:09 -23.64683 -46.26125 15774 ft 354 kts 85°
2026-05-05 17:09 -23.64443 -46.23438 16462 ft 358 kts 86°
2026-05-05 17:10 -23.64196 -46.20720 17146 ft 362 kts 85°
2026-05-05 17:10 -23.63948 -46.18014 17801 ft 366 kts 85°
2026-05-05 17:10 -23.63693 -46.15242 18459 ft 370 kts 85°
2026-05-05 17:10 -23.63436 -46.12439 19027 ft 374 kts 85°
2026-05-05 17:11 -23.63176 -46.09602 19604 ft 377 kts 86°
2026-05-05 17:11 -23.62913 -46.06736 20189 ft 381 kts 86°
2026-05-05 17:11 -23.62644 -46.03837 20775 ft 385 kts 86°
2026-05-05 17:11 -23.62374 -46.00920 21358 ft 389 kts 86°
2026-05-05 17:12 -23.62102 -45.97974 21945 ft 392 kts 86°
2026-05-05 17:12 -23.61829 -45.95001 22531 ft 396 kts 86°
2026-05-05 17:12 -23.61553 -45.92002 23099 ft 400 kts 86°
2026-05-05 17:12 -23.61277 -45.89008 23676 ft 403 kts 86°
2026-05-05 17:13 -23.60995 -45.85953 24164 ft 407 kts 86°
2026-05-05 17:13 -23.60710 -45.82869 24641 ft 411 kts 86°
2026-05-05 17:13 -23.60422 -45.79755 25035 ft 415 kts 86°
2026-05-05 17:13 -23.60129 -45.76622 25159 ft 415 kts 86°
2026-05-05 17:14 -23.59835 -45.73533 25187 ft 411 kts 86°
2026-05-05 17:14 -23.59537 -45.70359 25187 ft 429 kts 86°
2026-05-05 17:14 -23.59230 -45.67082 25186 ft 439 kts 86°
2026-05-05 17:14 -23.58916 -45.63763 25183 ft 442 kts 86°
2026-05-05 17:15 -23.58599 -45.60426 25184 ft 443 kts 86°
2026-05-05 17:15 -23.58278 -45.57077 25185 ft 443 kts 86°
2026-05-05 17:15 -23.57957 -45.53744 25185 ft 443 kts 86°
2026-05-05 17:15 -23.57634 -45.50400 25185 ft 443 kts 86°
2026-05-05 17:16 -23.57290 -45.47069 25184 ft 444 kts 83°
2026-05-05 17:16 -23.56602 -45.43781 25183 ft 446 kts 74°
2026-05-05 17:16 -23.55629 -45.40572 25185 ft 446 kts 73°
2026-05-05 17:16 -23.54633 -45.37371 25183 ft 446 kts 73°
2026-05-05 17:17 -23.53628 -45.34174 25181 ft 446 kts 73°
2026-05-05 17:17 -23.52619 -45.30980 25181 ft 446 kts 73°
2026-05-05 17:17 -23.51605 -45.27789 25187 ft 446 kts 72°
2026-05-05 17:17 -23.50573 -45.24603 25190 ft 445 kts 72°
2026-05-05 17:18 -23.49547 -45.21423 25185 ft 445 kts 72°
2026-05-05 17:18 -23.48531 -45.18241 25182 ft 445 kts 73°
2026-05-05 17:18 -23.47525 -45.15057 25181 ft 445 kts 73°
2026-05-05 17:18 -23.46523 -45.11865 25179 ft 445 kts 73°
2026-05-05 17:19 -23.45525 -45.08680 25177 ft 444 kts 73°
2026-05-05 17:19 -23.44524 -45.05496 25176 ft 445 kts 73°
2026-05-05 17:19 -23.43532 -45.02349 25175 ft 445 kts 73°
2026-05-05 17:19 -23.42526 -44.99161 25175 ft 444 kts 73°
2026-05-05 17:20 -23.41520 -44.95980 25175 ft 445 kts 73°
2026-05-05 17:20 -23.40515 -44.92799 25175 ft 444 kts 73°
2026-05-05 17:20 -23.39506 -44.89607 25168 ft 444 kts 73°
2026-05-05 17:20 -23.38498 -44.86428 25174 ft 444 kts 73°
2026-05-05 17:21 -23.37489 -44.83249 25168 ft 444 kts 73°
2026-05-05 17:21 -23.36479 -44.80072 25169 ft 445 kts 73°
2026-05-05 17:21 -23.35470 -44.76892 25161 ft 445 kts 73°
2026-05-05 17:22 -23.33449 -44.70529 25165 ft 445 kts 73°
2026-05-05 17:22 -23.32437 -44.67352 25159 ft 445 kts 72°
2026-05-05 17:22 -23.31422 -44.64173 25158 ft 444 kts 73°
2026-05-05 17:22 -23.30410 -44.60999 24627 ft 445 kts 73°
2026-05-05 17:23 -23.29391 -44.57792 23683 ft 450 kts 73°
2026-05-05 17:23 -23.28371 -44.54582 22981 ft 446 kts 73°
2026-05-05 17:23 -23.27361 -44.51417 22377 ft 439 kts 72°
2026-05-05 17:23 -23.26363 -44.48306 21788 ft 433 kts 72°
2026-05-05 17:24 -23.25388 -44.45275 21246 ft 428 kts 72°
2026-05-05 17:24 -23.24413 -44.42240 20705 ft 423 kts 72°
2026-05-05 17:24 -23.23448 -44.39239 20193 ft 419 kts 72°
2026-05-05 17:24 -23.22490 -44.36265 19679 ft 415 kts 72°
2026-05-05 17:25 -23.21541 -44.33311 19162 ft 413 kts 72°
2026-05-05 17:25 -23.20902 -44.31322 18825 ft 411 kts 71°
2026-05-05 17:25 -23.19661 -44.27446 18081 ft 409 kts 71°
2026-05-05 17:25 -23.18728 -44.24531 17541 ft 406 kts 71°
2026-05-05 17:26 -23.17800 -44.21640 17004 ft 403 kts 71°
2026-05-05 17:26 -23.16877 -44.18770 16441 ft 401 kts 71°
2026-05-05 17:26 -23.15960 -44.15921 15901 ft 398 kts 71°
2026-05-05 17:26 -23.15046 -44.13089 15336 ft 396 kts 71°
2026-05-05 17:27 -23.14135 -44.10273 14784 ft 394 kts 71°
2026-05-05 17:27 -23.13228 -44.07474 14221 ft 392 kts 71°
2026-05-05 17:27 -23.12328 -44.04687 13618 ft 388 kts 71°
2026-05-05 17:27 -23.11449 -44.01967 13234 ft 373 kts 71°
2026-05-05 17:28 -23.10598 -43.99337 13135 ft 366 kts 71°
2026-05-05 17:28 -23.09754 -43.96733 12790 ft 363 kts 71°
2026-05-05 17:28 -23.08909 -43.94125 11467 ft 370 kts 71°
2026-05-05 17:28 -23.08059 -43.91501 10747 ft 361 kts 72°
2026-05-05 17:29 -23.07243 -43.88994 10625 ft 344 kts 72°
2026-05-05 17:29 -23.06462 -43.86591 10502 ft 329 kts 72°
2026-05-05 17:29 -23.05716 -43.84296 10384 ft 316 kts 72°
2026-05-05 17:29 -23.05005 -43.82113 10248 ft 305 kts 72°
2026-05-05 17:30 -23.04307 -43.79971 10037 ft 298 kts 72°
2026-05-05 17:30 -23.03617 -43.77847 9804 ft 299 kts 72°
2026-05-05 17:30 -23.02922 -43.75699 9157 ft 300 kts 72°
2026-05-05 17:30 -23.02231 -43.73571 8551 ft 296 kts 72°
2026-05-05 17:31 -23.01552 -43.71485 7959 ft 291 kts 72°
2026-05-05 17:31 -23.00877 -43.69412 7284 ft 290 kts 71°
2026-05-05 17:31 -23.00205 -43.67353 6693 ft 287 kts 72°
2026-05-05 17:31 -22.99561 -43.65392 6609 ft 268 kts 72°
2026-05-05 17:32 -22.98953 -43.63538 6547 ft 253 kts 71°
2026-05-05 17:32 -22.98379 -43.61779 6449 ft 241 kts 72°
2026-05-05 17:32 -22.97840 -43.60127 6346 ft 232 kts 72°
2026-05-05 17:32 -22.97307 -43.58490 6264 ft 229 kts 71°
2026-05-05 17:33 -22.96776 -43.56866 6213 ft 228 kts 71°
2026-05-05 17:33 -22.96246 -43.55246 6158 ft 228 kts 72°
2026-05-05 17:33 -22.95716 -43.53625 6106 ft 228 kts 72°
2026-05-05 17:33 -22.95185 -43.52007 6050 ft 228 kts 72°
2026-05-05 17:34 -22.94613 -43.50407 5966 ft 229 kts 66°
2026-05-05 17:34 -22.93943 -43.48844 5703 ft 228 kts 65°
2026-05-05 17:34 -22.93283 -43.47287 5464 ft 226 kts 66°
2026-05-05 17:34 -22.92633 -43.45746 5229 ft 224 kts 66°
2026-05-05 17:35 -22.91984 -43.44213 5006 ft 223 kts 65°
2026-05-05 17:35 -22.91337 -43.42687 4769 ft 223 kts 65°
2026-05-05 17:35 -22.90688 -43.41152 4429 ft 224 kts 65°
2026-05-05 17:35 -22.90036 -43.39612 4098 ft 224 kts 65°
2026-05-05 17:36 -22.89386 -43.38079 3774 ft 224 kts 65°
2026-05-05 17:36 -22.88741 -43.36558 3461 ft 226 kts 64°
2026-05-05 17:36 -22.88118 -43.34998 3110 ft 225 kts 70°
2026-05-05 17:36 -22.87616 -43.33405 2795 ft 221 kts 69°
2026-05-05 17:37 -22.87127 -43.31879 2671 ft 205 kts 70°
2026-05-05 17:37 -22.86823 -43.30930 2689 ft 191 kts 69°
2026-05-05 17:37 -22.86254 -43.29168 2330 ft 182 kts 70°
2026-05-05 17:37 -22.85852 -43.27924 2190 ft 169 kts 71°
2026-05-05 17:38 -22.85513 -43.26708 2092 ft 168 kts 83°
2026-05-05 17:38 -22.85590 -43.25450 1936 ft 167 kts 99°
2026-05-05 17:38 -22.85770 -43.24220 1734 ft 164 kts 99°
2026-05-05 17:38 -22.85945 -43.23002 1528 ft 163 kts 99°
2026-05-05 17:39 -22.86107 -43.21856 1368 ft 144 kts 99°
2026-05-05 17:39 -22.86253 -43.20823 1247 ft 134 kts 99°
2026-05-05 17:39 -22.86392 -43.19841 1126 ft 130 kts 99°
2026-05-05 17:39 -22.86532 -43.18874 1048 ft 129 kts 100°
2026-05-05 17:40 -22.86794 -43.17953 951 ft 129 kts 121°
2026-05-05 17:40 -22.87310 -43.17134 762 ft 131 kts 126°
2026-05-05 17:40 -22.87981 -43.16528 592 ft 128 kts 159°
2026-05-05 17:40 -22.88856 -43.16435 400 ft 126 kts 173°
2026-05-05 17:41 -22.89722 -43.16364 227 ft 123 kts 177°
2026-05-05 17:41 -22.90573 -43.16314 34 ft 121 kts 175°
2026-05-05 17:41 -22.91235 -43.16269 22 ft 49 kts 176°
2026-05-05 17:41 -22.91419 -43.16258 20 ft 19 kts 177°
2026-05-05 17:42 -22.91520 -43.16281 20 ft 13 kts 252°
2026-05-05 17:42 -22.91524 -43.16345 20 ft 6 kts 268°
2026-05-05 17:42 -22.91516 -43.16384 21 ft 4 kts 298°
2026-05-05 17:42 -22.91493 -43.16409 22 ft 6 kts 317°
2026-05-05 17:43 -22.91460 -43.16443 22 ft 7 kts 316°
2026-05-05 17:43 -22.91418 -43.16486 22 ft 9 kts 316°
2026-05-05 17:43 -22.91354 -43.16504 23 ft 11 kts 357°
2026-05-05 17:43 -22.91289 -43.16508 24 ft 3 kts 356°
2026-05-05 17:44 -22.91261 -43.16510 22 ft 5 kts 356°
2026-05-05 17:44 -22.91243 -43.16538 22 ft 5 kts 267°
2026-05-05 17:44 -22.91245 -43.16573 22 ft 3 kts 266°
2026-05-05 17:44 -22.91245 -43.16582 22 ft 0 kts 268°